Joplin, MO

1:51 PM CST on November 13, 2019 (GMT -0600)
Joplin Regional

Weather History for KJLN - October, 2019

Change the Weather History Date:

Wednesday, October 23, 2019

  Actual Average Record
Temperature  
Mean Temperature 60 °F 58 °F  
Max Temperature 73 °F 69 °F 83 °F (1989)
Min Temperature 46 °F 46 °F 28 °F (1981)
Degree Days  
Heating Degree Days 6 8  
Month to date heating degree days 165 135  
Since 1 July heating degree days 165 177  
Cooling Degree Days 0 1  
Month to date cooling degree days 38 41  
Year to date cooling degree days 1696 1683  
Growing Degree Days 10 (Base 50)    
Moisture  
Dew Point 40 °F    
Average Humidity 49    
Maximum Humidity 68    
Minimum Humidity 29    
Precipitation  
Precipitation 0.00 in 0.13 in 1.06 in (1970)
Month to date precipitation 2.34 3.02  
Year to date precipitation 55.68 38.94  
Sea Level Pressure  
Sea Level Pressure 29.99 in    
Wind  
Wind Speed 13 mph ()    
Max Wind Speed 36 mph    
Max Gust Speed 50 mph    
Visibility 10.0 miles    
Events      
T = Trace of Precipitation, MM = Missing Value Source: Averaged Metar Reports

Daily Weather History Graph

Daily Weather History Graph

Search for Another Location

Airport or City:

Astronomy

Oct. 23, 2019 Rise Set
Actual Time 7:33 AM CDT 6:30 PM CDT
Civil Twilight 7:06 AM CDT 6:57 PM CDT
Nautical Twilight 6:36 AM CDT 7:27 PM CDT
Astronomical Twilight 6:06 AM CDT 7:57 PM CDT
Moon 2:02 AM CDT (10/23) 4:13 PM CDT (10/23)
Length of Visible Light 11h 50m
Length of Day
10h 57m
Waning Crescent, 26% of the Moon is Illuminated
Oct 23
Waning Crescent
Oct 27
New
Nov 4
First Quarter
Nov 12
Full
Nov 19
Last Quarter

Hourly Weather History & Observations

Time (CDT) Temp. Windchill Dew Point Humidity Pressure Visibility Wind Dir Wind Speed Gust Speed Precip Events Conditions
12:53 AM 46.0 °F 41.0 °F 36.0 °F 68% 30.01 in 10.0 mi South 10.4 mph - N/A   Clear
1:53 AM 46.9 °F - 36.0 °F 66% 30.00 in 10.0 mi South 11.5 mph - N/A   Clear
2:53 AM 48.0 °F - 36.0 °F 63% 29.99 in 10.0 mi South 11.5 mph - N/A   Clear
3:53 AM 50.0 °F - 36.0 °F 59% 29.98 in 10.0 mi South 10.4 mph - N/A   Clear
4:53 AM 52.0 °F - 36.0 °F 54% 29.98 in 10.0 mi South 11.5 mph - N/A   Clear
5:53 AM 53.1 °F - 36.0 °F 52% 29.98 in 10.0 mi South 15.0 mph - N/A   Clear
6:53 AM 53.1 °F - 36.0 °F 52% 29.98 in 10.0 mi South 16.1 mph 25.3 mph N/A   Clear
7:53 AM 51.1 °F - 36.0 °F 56% 29.99 in 10.0 mi South 17.3 mph - N/A   Clear
8:53 AM 54.0 °F - 37.0 °F 53% 30.01 in 10.0 mi South 16.1 mph 26.5 mph N/A   Clear
9:53 AM 60.1 °F - 37.0 °F 42% 30.01 in 10.0 mi SSW 19.6 mph 26.5 mph N/A   Clear
11:53 AM 68.0 °F - 39.0 °F 35% 29.97 in 10.0 mi SSW 25.3 mph 42.6 mph N/A   Clear
12:53 PM 70.0 °F - 39.0 °F 32% 29.94 in 10.0 mi SSW 25.3 mph 46.0 mph N/A   Clear
1:53 PM 71.1 °F - 39.0 °F 31% 29.93 in 10.0 mi SSW 26.5 mph 40.3 mph N/A   Clear
2:53 PM 72.0 °F - 37.9 °F 29% 29.91 in 10.0 mi SSW 27.6 mph 36.8 mph N/A   Clear
3:53 PM 73.0 °F - 39.9 °F 30% 29.91 in 10.0 mi SSW 17.3 mph - N/A   Clear
4:53 PM 70.0 °F - 43.0 °F 38% 29.93 in 10.0 mi SW 17.3 mph 28.8 mph N/A   Clear
5:53 PM 69.1 °F - 45.0 °F 42% 29.95 in 10.0 mi SSW 12.7 mph 23.0 mph N/A   Clear
6:53 PM 64.9 °F - 46.0 °F 50% 29.97 in 10.0 mi SSW 11.5 mph - N/A   Partly Cloudy
7:53 PM 64.0 °F - 48.0 °F 56% 30.00 in 10.0 mi South 8.1 mph - N/A   Overcast
8:53 PM 63.0 °F - 43.0 °F 48% 30.01 in 10.0 mi South 12.7 mph - N/A   Mostly Cloudy
9:53 PM 63.0 °F - 44.1 °F 50% 30.06 in 10.0 mi WNW 6.9 mph - N/A   Mostly Cloudy
10:53 PM 59.0 °F - 44.1 °F 58% 30.09 in 10.0 mi North 5.8 mph - N/A   Overcast
11:53 PM 59.0 °F - 44.1 °F 58% 30.11 in 10.0 mi NNE 9.2 mph - N/A   Overcast